Location: London
(51.5074°N, 0.1278°W)
Time: 19:09:31
(UTC+01:00)

Envisat - Visible Passes

Search period start: 26 September 2021 00:00
Search period end: 06 October 2021 00:00
Orbit: 764 x 766 km, 98.2° (Epoch: 25 September)

Date Brightness Start Highest point End Pass type
(mag) Time Alt. Az. Time Alt. Az. Time Alt. Az.
26 Sep 3.9 06:00:05 10° NNE 06:05:05 54° E 06:10:04 10° S visible
27 Sep 5.2 05:23:38 10° NE 05:27:59 28° E 05:32:19 10° SSE visible
28 Sep 6.0 04:47:58 10° NE 04:50:41 14° E 04:53:23 10° ESE visible
29 Sep 4.3 05:48:38 10° NNE 05:53:31 44° E 05:58:21 10° S visible
30 Sep 5.5 05:12:20 10° NE 05:16:21 23° E 05:20:21 10° SE visible
01 Oct 6.2 04:37:20 10° ENE 04:38:59 11° E 04:40:37 10° ESE visible
01 Oct 3.4 06:13:51 10° NNE 06:18:57 71° ESE 06:24:01 10° S visible
02 Oct 4.7 05:37:14 10° NNE 05:41:56 36° E 05:46:36 10° SSE visible
03 Oct 5.8 05:01:09 10° NE 05:04:43 19° E 05:08:15 10° SE visible
04 Oct 3.7 06:02:22 10° NNE 06:07:24 58° E 06:12:24 10° S visible
04 Oct 6.8 19:06:18 10° W 19:07:18 10° W 19:08:18 10° WNW visible
05 Oct 5.1 05:25:52 10° NNE 05:30:19 30° E 05:34:45 10° SSE visible
